Location: Autingues
(50.8400°N, 1.9737°E)
Time: 12:33:06
(UTC+00:00)

Cosmos 2263 Rocket - Pass Details

Date: 15 May 2026
Orbit: 824 x 846 km, 71.0° (Epoch: 8 June)

Event Time Altitude Azimuth Distance (km) Brightness Sun altitude
Exits shadow 23:03:49 10° 107° (ESE) 2,459 4.3 -19.4°
Reaches altitude 10° 23:04:08 10° 104° (ESE) 2,436 4.4 -19.4°
Maximum altitude 23:05:03 10° 94° (E) 2,408 4.4 -19.5°
Drops below altitude 10° 23:05:57 10° 85° (E) 2,437 4.5 -19.5°
Sets 23:10:53 0° 46° (NE) 3,374 5.8 -19.6°
